Preview of NWS' New Version of Forecast
This preview is not operational and should not be used for support decisions.

Regional Weather Roundup (RWR)

Issued by Gray - Portland, ME (GYX)

                            
132 
ASUS41 KGYX 172110
RWRGYX
WEATHER ROUNDUP FOR MAINE AND NEW HAMPSHIRE
NATIONAL WEATHER SERVICE GRAY ME
400 PM EST SAT FEB 17 2018

MEZ002-005-006-010-012-015-018-020-021-024-026-027-029-172200-
MAINE
  
CITY           SKY/WX    TMP DP  RH WIND       PRES   REMARKS
PORTLAND       FAIR      29  19  66 SE17      30.34F WCI  17          
SANFORD        FAIR      29  16  58 SE6       30.33S                  
BAR HARBOR     FAIR      27   5  39 SW6       30.37R                  
WISCASSET      FAIR      28  11  48 S7        30.36S                  
ROCKLAND       FAIR      27  13  55 S6        30.37R                  
FRYEBURG       FAIR      33   2  26 S3        30.27F                  
LEWISTONAUBURN FAIR      28  13  53 S13       30.31F WCI  17          
AUGUSTA        FAIR      29   5  36 S8        30.31S                  
WATERVILLE     FAIR      29   5  36 S6        30.26S                  
BANGOR         PTSUNNY   26   3  37 SE5       30.34R                  
GREENVILLE       N/A     23   0  36 S8        30.18R                  
MILLINOCKET    FAIR      25   0  33 SE6       30.29R                  
HOULTON        FAIR      22  -2  35 S5        30.27R                  
PRESQUE ISLE   FAIR      22   0  38 SW6       30.25S                  
FRENCHVILLE    FAIR      16  -1  47 SE6       30.17F                  
CARIBOU        FAIR      20  -1  40 S6        30.22S                  
$$

NHZ002-005-008-009-011-012-014-172200-
NEW HAMPSHIRE
  
CITY           SKY/WX    TMP DP  RH WIND       PRES   REMARKS
PORTSMOUTH     CLOUDY    30  16  54 SE14      30.32F WCI  20          
ROCHESTER      FAIR      30  16  56 VRB7      30.31S                  
NASHUA         FAIR      36   6  28 SE7       30.29S                  
MANCHESTER     CLOUDY    36   4  26 SE9       30.28S                  
CONCORD        FAIR      34   8  33 S9        30.28S                  
LACONIA        FAIR      31  10  41 NE3       30.27S                  
PLYMOUTH       FAIR      32   5  32 E5        30.24S                  
BERLIN         FAIR      31   6  35 SE10      30.18F                  
WHITEFIELD     FAIR      31   5  33 NW3       30.18F                  
JAFFREY        FAIR      34  10  37 S7        30.21F                  
KEENE          FAIR      35  11  36 S6        30.23F                  
LEBANON        FAIR      33  15  47 S6        30.20F                  
MT WASHINGTON  NOT AVBL                                               
$$

VTZ005-007-008-172200-
VERMONT
  
CITY           SKY/WX    TMP DP  RH WIND       PRES   REMARKS
ST JOHNSBURY     N/A     31   7  36 MISG      30.18F                  
MONTPELIER     FAIR      30   9  41 S15       30.18F WCI  19          
BURLINGTON     CLOUDY    33   7  33 S15G22    30.15F                  
$$

MAZ007-012-024-CTZ003-RIZ002-NYZ038-NYZ072-172200-
SOUTHERN NEW ENGLAND AND NY
  
CITY           SKY/WX    TMP DP  RH WIND       PRES   REMARKS
BOSTON         CLOUDY    32  19  58 E14       30.33F                  
WORCESTER      FAIR      34   9  35 S13       30.24S                  
NANTUCKET      FAIR      36  25  64 SE14      30.37R                  
PROVIDENCE     CLOUDY    34  21  59 S13       30.37R                  
HARTFORD       CLOUDY    36   9  32 S16       30.28F                  
ALBANY         CLOUDY    35  15  44 S8        30.21F                  
NEW YORK CITY  CLOUDY    38  21  50 SE13      30.26F                  
$$

ANZ081-ANZ082-ANZ150-NHZ014-MEZ023>029-172200-
COASTAL MARINE OBSERVATIONS
  
STATION/POSITION TIME  TEMP    WIND        PRES    WAVE
                       AIR SEA DIR/SP/G            HT/PER
                 (UTC) (F)     (DEG/KT/KT) (MB)    (FT/S)
MOUNT DESERT ROC 2100   27     180/  7/  8 1028.8R
MATINICUS ROCK   2100   27     200/  9/ 10 1027.7F
ISLE OF SHOALS   2100   31     150/ 16/ 18 1027.1F
JEFFREYS LEDGE   2036      42                N/A     2/10
GEORGES BANK BUO 1950   30 42              1021.8   18/10
$$

.............KEY..............
   WCI - WIND CHILL
   TC  - TEMPERATURE IN CELSIUS
   VSB - VISIBILITY IN MILES
   HX  - HEAT INDEX
   FAIR- INDICATES FEW OR NO CLOUDS BELOW 12,000 FT, WITH NO 
         SIGNIFICANT WEATHER AND/OR OBSTRUCTIONS TO VISIBILITY.